Other Public Products
Issued by NWS Grand Forks, ND

Home | Current Version | Previous Version | Graphics & Text | Print | Product List | Glossary On
Versions: 1 2 3 4 5 6 7 8 9 10 11 12 13 14 15 16 17 18 19 20 21 22 23 24 25 26 27 28 29 30 31 32 33 34 35 36 37 38 39 40 41 42 43 44 45 46 47 48 49 50
000
FPUS83 KFGF 211310
OPUFGF
PRAIRIE TO PINES WEATHER ROUNDUP
NATIONAL WEATHER SERVICE EASTERN NORTH DAKOTA/GRAND FORKS ND
700 AM CST SUN DEC 21 2014

 **SATELLITE DATA USED TO AUGMENT SKY COVER AT AUTOMATED STATIONS**
 *****  WEATHER ACROSS EASTERN NORTH DAKOTA  *****

CITY           SKY/WX    TMP DP  RH WIND       PRES   REMARKS
GRAND FORKS    CLOUDY    30  28  92 S15       29.71F WCI  19
GRAND FORKS AF CLOUDY    29  29 100 S18       29.70F WCI  16
GRAND CITY NWS   N/A     30 N/A N/A S22         N/A  WCI  17
BUXTON         NOT AVBL
DEVILS LAKE    CLEAR     18  10  73 SE3       29.62F
FARGO          CLOUDY    32  28  85 S13       29.76F WCI  22
WAHPETON ARPT  CLOUDY    32  28  86 S13       29.79S WCI  22
$$

 *****  WEATHER ACROSS CENTRAL AND WESTERN NORTH DAKOTA  *****

CITY           SKY/WX    TMP DP  RH WIND       PRES   REMARKS
JAMESTOWN      MOCLDY    22  19  89 S8        29.66F FOG     WCI  12
BISMARCK       CLOUDY    19  17  92 NE5       29.63F WCI  12
MINOT          CLEAR     17  14  88 SE7       29.56F WCI   8
MINOT AFB      CLEAR     15  15  99 S7        29.56F WCI   5
GARRISON         N/A     19  16  88 E3        29.58F
WILLISTON      CLEAR     14  13  95 CALM      29.52F
DICKINSON      CLEAR     23  18  81 S8        29.51F WCI  14
HETTINGER      CLEAR     22  18  85 CALM      29.56F
$$

 *****  OTHER OBSERVATIONS NORTHEAST NORTH DAKOTA  *****

CITY           SKY/WX    TMP DP  RH WIND       PRES   REMARKS
WALHALLA         N/A     28  28 100 S3        29.67S
LANGDON        FAIR      23  19  86 N5        29.62F FOG     WCI  17
CAVALIER       CLOUDY    28  28 100 S14       29.67F FOG     WCI  17
GRAFTON        NOT AVBL
CANDO          FAIR      14  14 100 SE7       29.63F WCI   4
FORT TOTTEN      N/A     18  16  92 S3        29.95
ROLLA          FOG       19  19 100 MISG      29.59F VSB 1/4
RUGBY          FAIR      14  14 100 SE6       29.60F WCI   5
 ***** THE ABOVE OBSERVATIONS ARE NON NWS ARE NOT QUALITY
        CONTROLLED AND MAY MIS-REPORT RAIN FOR SNOW...
$$

 *****  OTHER OBSERVATIONS SOUTHEAST NORTH DAKOTA *****

CITY           SKY/WX    TMP DP  RH WIND       PRES   REMARKS
COOPERSTOWN    NOT AVBL
VALLEY CITY    FOG       27  27 100 S14       29.69F VSB 1/2 WCI  15
OAKES            N/A     28  28 100 S15       29.72F FOG     WCI  17
GWINNER        CLOUDY    32  32 100 MISG      29.74F
SHEYENNE NWR     N/A     30  28  92 S9        29.95  WCI  22
BUFFALO        NOT AVBL
WYNDMERE         N/A     30  28  93 S8          N/A  WCI  23
 ***** THE ABOVE OBSERVATIONS ARE NON NWS ARE NOT QUALITY
       CONTROLLED AND MAY MIS-REPORT RAIN FOR SNOW...
$$

  *****  WEATHER ACROSS NORTHERN MINNESOTA  *****

CITY           SKY/WX    TMP DP  RH WIND       PRES   REMARKS
FLAG ISLAND    CLOUDY    28  27  93 SE18      29.74F FOG     WCI  16
WARROAD        LGT SNOW  30  27  86 S7        29.75F WCI  23
ROSEAU         CLOUDY    30  27  86 S14       29.73F FOG     WCI  20
HALLOCK        LGT SNOW  30  30 100 CALM      29.70S
THF RVR FALLS  CLOUDY    30  28  93 S15       29.74F WCI  19
HALSTAD          N/A     31  28  90 S17         N/A  WCI  20
FOSSTON        CLOUDY    28  27  93 S14       29.77S FOG     WCI  17
BAUDETTE       CLOUDY    29  26  89 S8        29.77F FOG     WCI  21
WASKISH        CLOUDY    28  28 100 CALM      29.79F FOG
CROOKSTON      CLOUDY    30  30 100 S18       29.75F FOG     WCI  18
$$
  *****  WEATHER ACROSS CENTRAL AND WEST MINNESOTA  *****

CITY           SKY/WX    TMP DP  RH WIND       PRES   REMARKS
BEMIDJI        CLOUDY    29  28  97 S9        29.78F FOG     WCI  20
PARK RAPIDS    CLOUDY    30  28  92 S14       29.79F FOG     WCI  19
WADENA         CLOUDY    28  28 100 S15       29.80F FOG     WCI  17
DETROIT LAKES  CLOUDY    30  30 100 S17       29.78F FOG     WCI  18
MOORHEAD       CLOUDY    30  30 100 S14       29.78S FOG     WCI  20
FERGUS FALLS   CLOUDY    30  28  93 S14       29.82S FOG     WCI  20
ELBOW LAKE     CLOUDY    30  29  99 S13       29.80F FOG     WCI  20
MORRIS MN      CLOUDY    30  30 100 S13       29.80S FOG     WCI  20
STAPLES        CLOUDY    28  28 100 S9        29.82F FOG     WCI  20
WHEATON        CLOUDY    28  27  93 S7        29.81F FOG     WCI  21
$$
  *****  WEATHER ELSEWHERE ACROSS MINNESOTA  *****

CITY           SKY/WX    TMP DP  RH WIND       PRES   REMARKS
DULUTH         FRZ DRZL  30  27  88 SE7       29.90F WCI  23
INTRNTL FALLS  CLOUDY    29  26  89 VRB5      29.83S FOG     WCI  24
ELY            CLOUDY    28  27  93 S7G17     29.90S WCI  21
CLOQUET        CLOUDY    30  27  86 S9        29.90F WCI  22
BRAINERD       CLOUDY    30  29  96 S14       29.85F FOG     WCI  19
HIBBING        CLOUDY    30  26  85 S9        29.86F WCI  22
ALEXANDRIA     CLOUDY    30  29  96 S10       29.82S FOG     WCI  21
SAINT CLOUD    CLOUDY    34  30  85 S12       29.86F FOG
MINNEAPOLIS    CLOUDY    33  31  92 SE14      29.91F FOG     WCI  23
$$

  *****  WEATHER ACROSS SOUTH DAKOTA  *****

CITY           SKY/WX    TMP DP  RH WIND       PRES   REMARKS
SIOUX FALLS    FOG       32  32 100 S10       29.80F VSB 1   WCI  24
BROOKINGS      NOT AVBL
WATERTOWN      CLOUDY    29  29 100 S6        29.75F FOG     WCI  23
HURON          FOG       30  30 100 S8        29.75F VSB 1   WCI  22
SISSETON         N/A     30  29  96 S8        29.77F WCI  22
ABERDEEN       CLOUDY    31  29  92 S10       29.73F FOG     WCI  22
MITCHELL       FOG       31  31 100 SE10      29.76F VSB 3/4 WCI  22
PIERRE         CLEAR     21  19  92 SE8       29.64F WCI  11
MOBRIDGE       CLEAR     23  20  88 SE8       29.60F WCI  14
RAPID CITY     CLEAR     23  19  85 CALM      29.56F
$$

  *****  SOME WEATHER IN NEARBY STATES *****

CITY           SKY/WX    TMP DP  RH WIND       PRES   REMARKS
GLASGOW MT     PTCLDY    22  18  85 E14       29.41F WCI   9
GREAT FALLS MT MOCLDY    40  33  76 SW17G26   29.35S
CHEYENNE WY    MOCLDY    38  19  46 W18       29.72F
SCOTTSBLUFF NE CLEAR     20  16  84 E7        29.69F WCI  11
OMAHA NE       CLOUDY    37  35  92 S14       29.91F FOG
DES MOINES IA  CLOUDY    38  34  85 S17G23    29.99F
DAVENPORT IA   CLOUDY    35  32  88 S10       30.12S
CHICAGO IL     CLOUDY    32  27  81 S9        30.21R WCI  24
EAU CLAIRE WI  CLOUDY    31  28  89 SE10      29.98F WCI  22
LA CROSSE WI   CLOUDY    35  31  85 SE12      30.03F FOG
$$

  *****  SOME NATIONAL WEATHER *****

CITY           SKY/WX    TMP DP  RH WIND       PRES   REMARKS
LA GUARDIA NY  CLOUDY    32  25  75 N6        30.31R
RALEIGH NC     CLOUDY    38  33  82 CALM      30.31R FOG
ATLANTA GA     DRZL/FOG  46  44  93 E10       30.19S VSB 3/4
NEW ORLEANS LA CLOUDY    52  47  83 E6        30.11R
OKLAHOMA CITY  CLOUDY    45  39  81 S12       30.03S
ALBUQUERQUE NM PTCLDY    30  24  78 SE3       30.05F
SALT LAKE CITY RAIN      39  36  89 S12       29.97F
LOS ANGELES CA PTCLDY    54  47  77 NE6       30.13R
BOISE ID       CLOUDY    42  39  89 E9        29.81F
SEATTLE WA     CLOUDY    51  45  79 SW13G22   29.76R
$$

*** WEATHER ACROSS MANITOBA...SASKATCHEWAN AND ONTARIO ***
                ***ONTARIO***

CITY           SKY/WX    TMP DP  RH WIND       PRES   REMARKS
GERALDTON      LGT SNOW  27  25  93 SE6       30.01F WCI  20
THUNDER BAY    NOT AVBL
SIOUX LOOKOUT  LGT SNOW  27  27 100 SE6       29.83F VSB 3/4 WCI  20
TORONTO        MOCLDY    27  23  86 W5        30.31R WCI  21
BIG TROUT LK   CLOUDY    27  25  93 S12       29.87F WCI  16
PICKLE LAKE    FRZ DRZL  27  25  93 S7        29.86F WCI  19
DRYDEN         LGT SNOW  27  27 100 S8        29.81F WCI  18
KENORA         LGT SNOW  27  27 100 S12G17    29.76S FOG     WCI  16
$$
                *** MANITOBA***

CITY           SKY/WX    TMP DP  RH WIND       PRES   REMARKS
BRANDON        FOG       27  25  93 SE3       29.60F VSB 1/8
DAUPHIN        CLOUDY    25  23  93 S2        29.60F
ISLAND LAKE    FLURRIES  25  23  93 NE7       29.75S WCI  17
PILOT MOUND      N/A     25  23  93 CALM        N/A
THE PAS        LGT SNOW  23  21  93 SE8       29.60F VSB 1   WCI  14
THOMPSON       NOT AVBL
WINNIPEG       NOT AVBL
LYNN LAKE      CLOUDY    12  12 100 SE6       29.64S WCI   3
CHURCHILL      FLURRIES  16  14  93 W6        29.75F WCI   7
GILLAM         FRZ DRZL  23  19  86 SW7       29.75S WCI  15
$$
                ***SASKATCHEWAN***

CITY           SKY/WX    TMP DP  RH WIND       PRES   REMARKS
ESTEVAN        CLEAR     12   9  85 E8        29.51F WCI   1
KINDERSLEY     CLEAR     18  14  86 S6        29.31F WCI   9
LLOYDMINSTER   SNOW      16  14  93 SE12G17   29.34F VSB 1/2 WCI   3
PRINCE ALBERT  NOT AVBL
REGINA         PTCLDY    14  12  92 SE10      29.48F WCI   1


USA.gov is the U.S. government's official web portal to all federal, state and local government web resources and services.